Time,TemperatureF,DewpointF,PressureIn,WindDirection,WindDirectionDegrees,WindSpeedMPH,WindSpeedGustMPH,Humidity,HourlyPrecipIn,Conditions,Clouds,dailyrainin,SoftwareType,DateUTC
2013-07-03 00:00:00,75.8,53.6,29.97,North,5,0.0,0.0,46,0.00,,SKC,0.00,VWS V14.01,2013-07-03 05:00:00,
2013-07-03 00:03:00,75.2,53.6,29.97,North,5,0.0,0.0,47,0.00,,SKC,0.00,VWS V14.01,2013-07-03 05:03:00,
2013-07-03 00:07:00,74.8,53.2,29.98,North,5,0.0,0.0,47,0.00,,SKC,0.00,VWS V14.01,2013-07-03 05:07:00,
2013-07-03 00:10:00,74.9,53.3,29.98,North,5,0.0,0.0,47,0.00,,SKC,0.00,VWS V14.01,2013-07-03 05:10:00,
2013-07-03 00:12:00,74.3,53.4,29.98,North,5,0.0,0.0,48,0.00,,SKC,0.00,VWS V14.01,2013-07-03 05:12:00,
2013-07-03 00:17:00,73.9,53.6,29.98,North,5,0.0,0.0,49,0.00,,SKC,0.00,VWS V14.01,2013-07-03 05:17:00,
2013-07-03 00:19:00,73.8,53.5,29.98,North,5,0.0,0.0,49,0.00,,SKC,0.00,VWS V14.01,2013-07-03 05:19:00,
2013-07-03 00:20:00,74.0,53.7,29.98,North,5,0.0,0.0,49,0.00,,SKC,0.00,VWS V14.01,2013-07-03 05:20:00,
2013-07-03 00:24:00,73.4,53.7,29.98,North,5,0.0,0.0,50,0.00,,SKC,0.00,VWS V14.01,2013-07-03 05:24:00,
2013-07-03 00:29:00,73.1,53.4,29.98,North,5,0.0,0.0,50,0.00,,SKC,0.00,VWS V14.01,2013-07-03 05:29:00,
2013-07-03 00:30:00,73.3,53.6,29.98,North,5,0.0,0.0,50,0.00,,SKC,0.00,VWS V14.01,2013-07-03 05:30:00,
2013-07-03 00:34:00,72.8,53.1,29.98,North,5,0.0,0.0,50,0.00,,SKC,0.00,VWS V14.01,2013-07-03 05:34:00,
2013-07-03 00:39:00,72.6,52.9,29.97,North,5,0.0,0.0,50,0.00,,SKC,0.00,VWS V14.01,2013-07-03 05:39:00,
2013-07-03 00:40:00,72.8,53.1,29.98,North,5,0.0,0.0,50,0.00,,SKC,0.00,VWS V14.01,2013-07-03 05:40:00,
2013-07-03 00:44:00,72.3,52.6,29.97,North,5,0.0,0.0,50,0.00,,SKC,0.00,VWS V14.01,2013-07-03 05:44:00,
2013-07-03 00:49:00,72.1,52.5,29.98,North,5,0.0,0.0,50,0.00,,SKC,0.00,VWS V14.01,2013-07-03 05:49:00,
2013-07-03 00:50:00,72.2,53.1,29.97,North,5,0.0,0.0,51,0.00,,SKC,0.00,VWS V14.01,2013-07-03 05:50:00,
2013-07-03 00:54:00,71.9,52.3,29.97,North,5,0.0,0.0,50,0.00,,SKC,0.00,VWS V14.01,2013-07-03 05:54:00,
2013-07-03 00:57:00,71.9,52.3,29.97,North,5,0.0,0.0,50,0.00,,SKC,0.00,VWS V14.01,2013-07-03 05:57:00,
2013-07-03 00:58:00,71.8,52.2,29.97,North,5,0.0,0.0,50,0.00,,SKC,0.00,VWS V14.01,2013-07-03 05:58:00,
2013-07-03 01:00:00,71.9,52.3,29.97,North,5,0.0,0.0,50,0.00,,SKC,0.00,VWS V14.01,2013-07-03 06:00:00,
2013-07-03 01:02:00,71.9,52.3,29.97,North,5,0.0,0.0,50,0.00,,SKC,0.00,VWS V14.01,2013-07-03 06:02:00,
2013-07-03 01:07:00,71.9,52.8,29.98,North,5,0.0,0.0,51,0.00,,SKC,0.00,VWS V14.01,2013-07-03 06:07:00,
2013-07-03 01:10:00,71.9,52.3,29.98,North,5,0.0,0.0,50,0.00,,SKC,0.00,VWS V14.01,2013-07-03 06:10:00,
2013-07-03 01:12:00,71.9,52.3,29.98,North,5,0.0,0.0,50,0.00,,SKC,0.00,VWS V14.01,2013-07-03 06:12:00,
2013-07-03 01:13:00,71.9,52.3,29.98,North,5,0.0,0.0,50,0.00,,SKC,0.00,VWS V14.01,2013-07-03 06:13:00,
2013-07-03 01:16:00,71.9,51.7,29.98,North,5,0.0,4.0,49,0.00,,SKC,0.00,VWS V14.01,2013-07-03 06:16:00,
2013-07-03 01:17:00,71.9,52.3,29.98,North,5,0.0,2.0,50,0.00,,SKC,0.00,VWS V14.01,2013-07-03 06:17:00,
2013-07-03 01:20:00,71.9,51.7,29.98,North,5,0.0,4.0,49,0.00,,SKC,0.00,VWS V14.01,2013-07-03 06:20:00,
2013-07-03 01:22:00,72.0,51.8,29.98,North,5,0.0,4.0,49,0.00,,SKC,0.00,VWS V14.01,2013-07-03 06:22:00,
2013-07-03 01:24:00,72.1,51.9,29.98,North,5,0.0,4.0,49,0.00,,SKC,0.00,VWS V14.01,2013-07-03 06:24:00,
2013-07-03 01:26:00,72.2,51.4,29.98,North,5,0.0,4.0,48,0.00,,SKC,0.00,VWS V14.01,2013-07-03 06:26:00,
2013-07-03 01:30:00,72.2,51.4,29.98,North,5,0.0,4.0,48,0.00,,SKC,0.00,VWS V14.01,2013-07-03 06:30:00,
2013-07-03 01:31:00,72.4,51.0,29.98,North,5,0.0,5.0,47,0.00,,SKC,0.00,VWS V14.01,2013-07-03 06:31:00,
2013-07-03 01:32:00,72.5,51.7,29.98,North,5,0.0,5.0,48,0.00,,SKC,0.00,VWS V14.01,2013-07-03 06:32:00,
2013-07-03 01:37:00,72.7,51.3,29.98,North,5,0.0,5.0,47,0.00,,SKC,0.00,VWS V14.01,2013-07-03 06:37:00,
2013-07-03 01:40:00,72.6,51.2,29.98,North,5,0.0,5.0,47,0.00,,SKC,0.00,VWS V14.01,2013-07-03 06:40:00,
2013-07-03 01:42:00,73.0,51.0,29.98,North,5,1.0,6.0,46,0.00,,SKC,0.00,VWS V14.01,2013-07-03 06:42:00,
2013-07-03 01:43:00,73.2,51.2,29.98,North,5,0.0,6.0,46,0.00,,SKC,0.00,VWS V14.01,2013-07-03 06:43:00,
2013-07-03 01:48:00,73.5,51.5,29.98,North,5,1.0,6.0,46,0.00,,SKC,0.00,VWS V14.01,2013-07-03 06:48:00,
2013-07-03 01:50:00,73.3,51.3,29.98,North,5,0.0,6.0,46,0.00,,SKC,0.00,VWS V14.01,2013-07-03 06:50:00,
2013-07-03 01:54:00,73.7,51.1,29.97,North,5,1.0,6.0,45,0.00,,SKC,0.00,VWS V14.01,2013-07-03 06:54:00,
2013-07-03 01:56:00,73.7,51.1,29.97,North,5,0.0,6.0,45,0.00,,SKC,0.00,VWS V14.01,2013-07-03 06:56:00,
2013-07-03 02:00:00,73.7,51.1,29.97,North,5,0.0,6.0,45,0.00,,SKC,0.00,VWS V14.01,2013-07-03 07:00:00,
2013-07-03 02:01:00,73.9,51.2,29.98,North,5,0.0,3.0,45,0.00,,SKC,0.00,VWS V14.01,2013-07-03 07:01:00,
2013-07-03 02:06:00,73.9,51.2,29.97,North,5,0.0,0.0,45,0.00,,SKC,0.00,VWS V14.01,2013-07-03 07:06:00,
2013-07-03 02:10:00,73.9,51.2,29.97,North,5,0.0,6.0,45,0.00,,SKC,0.00,VWS V14.01,2013-07-03 07:10:00,
2013-07-03 02:11:00,73.8,51.2,29.98,North,5,0.0,3.0,45,0.00,,SKC,0.00,VWS V14.01,2013-07-03 07:11:00,
2013-07-03 02:16:00,73.8,51.2,29.98,North,5,0.0,0.0,45,0.00,,SKC,0.00,VWS V14.01,2013-07-03 07:16:00,
2013-07-03 02:20:00,73.8,51.2,29.98,North,5,0.0,6.0,45,0.00,,SKC,0.00,VWS V14.01,2013-07-03 07:20:00,
2013-07-03 02:21:00,73.7,51.1,29.98,North,5,0.0,4.0,45,0.00,,SKC,0.00,VWS V14.01,2013-07-03 07:21:00,
2013-07-03 02:26:00,73.6,51.0,29.98,North,5,1.0,3.0,45,0.00,,SKC,0.00,VWS V14.01,2013-07-03 07:26:00,
2013-07-03 02:30:00,73.6,51.0,29.98,North,5,0.0,5.0,45,0.00,,SKC,0.00,VWS V14.01,2013-07-03 07:30:00,
2013-07-03 02:31:00,73.6,51.0,29.98,North,5,0.0,7.0,45,0.00,,SKC,0.00,VWS V14.01,2013-07-03 07:31:00,
2013-07-03 02:36:00,73.5,50.9,29.98,North,5,0.0,0.0,45,0.00,,SKC,0.00,VWS V14.01,2013-07-03 07:36:00,
2013-07-03 02:38:00,73.5,50.9,29.98,North,5,0.0,8.0,45,0.00,,SKC,0.00,VWS V14.01,2013-07-03 07:38:00,
2013-07-03 02:40:00,73.6,51.0,29.98,North,5,0.0,7.0,45,0.00,,SKC,0.00,VWS V14.01,2013-07-03 07:40:00,
2013-07-03 02:43:00,73.5,50.9,29.98,North,5,6.0,8.0,45,0.00,,SKC,0.00,VWS V14.01,2013-07-03 07:43:00,
2013-07-03 02:48:00,73.4,50.8,29.98,North,5,5.0,6.0,45,0.00,,SKC,0.00,VWS V14.01,2013-07-03 07:48:00,
2013-07-03 02:50:00,73.4,50.8,29.98,North,5,0.0,6.0,45,0.00,,SKC,0.00,VWS V14.01,2013-07-03 07:50:00,
2013-07-03 02:55:00,73.3,50.7,29.98,North,5,0.0,6.0,45,0.00,,SKC,0.00,VWS V14.01,2013-07-03 07:55:00,
2013-07-03 03:00:00,73.3,50.7,29.98,North,5,0.0,5.0,45,0.00,,SKC,0.00,VWS V14.01,2013-07-03 08:00:00,
2013-07-03 03:02:00,73.2,50.6,29.98,North,5,0.0,5.0,45,0.00,,SKC,0.00,VWS V14.01,2013-07-03 08:02:00,
2013-07-03 03:06:00,73.1,51.1,29.97,North,5,0.0,0.0,46,0.00,,SKC,0.00,VWS V14.01,2013-07-03 08:06:00,
2013-07-03 03:09:00,73.0,51.0,29.97,North,5,0.0,2.0,46,0.00,,SKC,0.00,VWS V14.01,2013-07-03 08:09:00,
2013-07-03 03:10:00,73.1,51.1,29.98,North,5,0.0,5.0,46,0.00,,SKC,0.00,VWS V14.01,2013-07-03 08:10:00,
2013-07-03 03:14:00,73.0,51.0,29.97,North,5,1.0,8.0,46,0.00,,SKC,0.00,VWS V14.01,2013-07-03 08:14:00,
2013-07-03 03:18:00,73.0,51.0,29.97,North,5,0.0,7.0,46,0.00,,SKC,0.00,VWS V14.01,2013-07-03 08:18:00,
2013-07-03 03:20:00,72.9,50.9,29.97,North,5,1.0,8.0,46,0.00,,SKC,0.00,VWS V14.01,2013-07-03 08:20:00,
2013-07-03 03:23:00,72.9,50.9,29.97,North,5,0.0,7.0,46,0.00,,SKC,0.00,VWS V14.01,2013-07-03 08:23:00,
2013-07-03 03:28:00,72.9,50.9,29.97,North,5,0.0,5.0,46,0.00,,SKC,0.00,VWS V14.01,2013-07-03 08:28:00,
2013-07-03 03:30:00,72.9,50.9,29.97,North,5,4.0,7.0,46,0.00,,SKC,0.00,VWS V14.01,2013-07-03 08:30:00,
2013-07-03 03:33:00,72.9,50.9,29.97,North,5,0.0,7.0,46,0.00,,SKC,0.00,VWS V14.01,2013-07-03 08:33:00,
2013-07-03 03:38:00,72.9,51.5,29.96,North,9,0.0,9.0,47,0.00,,SKC,0.00,VWS V14.01,2013-07-03 08:38:00,
2013-07-03 03:39:00,73.0,51.6,29.96,North,9,0.0,9.0,47,0.00,,SKC,0.00,VWS V14.01,2013-07-03 08:39:00,
2013-07-03 03:40:00,72.9,50.9,29.97,North,5,0.0,7.0,46,0.00,,SKC,0.00,VWS V14.01,2013-07-03 08:40:00,
2013-07-03 03:44:00,73.0,51.6,29.96,North,9,0.0,9.0,47,0.00,,SKC,0.00,VWS V14.01,2013-07-03 08:44:00,
2013-07-03 03:45:00,72.9,51.5,29.96,North,9,3.0,9.0,47,0.00,,SKC,0.00,VWS V14.01,2013-07-03 08:45:00,
2013-07-03 03:50:00,72.9,51.5,29.96,North,11,0.0,7.0,47,0.00,,SKC,0.00,VWS V14.01,2013-07-03 08:50:00,
2013-07-03 03:54:00,72.9,51.5,29.96,North,11,0.0,8.0,47,0.00,,SKC,0.00,VWS V14.01,2013-07-03 08:54:00,
2013-07-03 03:56:00,72.9,51.5,29.96,NNE,12,0.0,8.0,47,0.00,,SKC,0.00,VWS V14.01,2013-07-03 08:56:00,
2013-07-03 04:00:00,72.8,51.4,29.96,NNE,12,0.0,8.0,47,0.00,,SKC,0.00,VWS V14.01,2013-07-03 09:00:00,
2013-07-03 04:01:00,72.8,52.0,29.96,NNE,13,0.0,9.0,48,0.00,,SKC,0.00,VWS V14.01,2013-07-03 09:01:00,
2013-07-03 04:06:00,72.6,51.8,29.97,NNE,13,0.0,9.0,48,0.00,,SKC,0.00,VWS V14.01,2013-07-03 09:06:00,
2013-07-03 04:10:00,72.6,51.8,29.97,NNE,13,0.0,9.0,48,0.00,,SKC,0.00,VWS V14.01,2013-07-03 09:10:00,
2013-07-03 04:11:00,72.5,51.7,29.96,NNE,13,2.0,7.0,48,0.00,,SKC,0.00,VWS V14.01,2013-07-03 09:11:00,
2013-07-03 04:16:00,72.4,51.6,29.96,NNE,13,3.0,7.0,48,0.00,,SKC,0.00,VWS V14.01,2013-07-03 09:16:00,
2013-07-03 04:20:00,72.4,51.6,29.96,NNE,13,3.0,7.0,48,0.00,,SKC,0.00,VWS V14.01,2013-07-03 09:20:00,
2013-07-03 04:21:00,72.3,51.5,29.97,NNE,13,0.0,8.0,48,0.00,,SKC,0.00,VWS V14.01,2013-07-03 09:21:00,
2013-07-03 04:26:00,72.2,52.0,29.97,NNE,13,5.0,5.0,49,0.00,,SKC,0.00,VWS V14.01,2013-07-03 09:26:00,
2013-07-03 04:30:00,72.2,52.0,29.97,NNE,13,3.0,8.0,49,0.00,,SKC,0.00,VWS V14.01,2013-07-03 09:30:00,
2013-07-03 04:31:00,72.1,51.9,29.97,NNE,13,0.0,6.0,49,0.00,,SKC,0.00,VWS V14.01,2013-07-03 09:31:00,
2013-07-03 04:36:00,72.0,51.8,29.97,NNE,14,2.0,3.0,49,0.00,,SKC,0.00,VWS V14.01,2013-07-03 09:36:00,
2013-07-03 04:40:00,72.0,51.8,29.97,NNE,14,2.0,9.0,49,0.00,,SKC,0.00,VWS V14.01,2013-07-03 09:40:00,
2013-07-03 04:41:00,71.9,52.3,29.97,NNE,14,0.0,8.0,50,0.00,,SKC,0.00,VWS V14.01,2013-07-03 09:41:00,
2013-07-03 04:46:00,71.7,52.1,29.96,NNE,14,5.0,5.0,50,0.00,,SKC,0.00,VWS V14.01,2013-07-03 09:46:00,
2013-07-03 04:49:00,71.6,52.0,29.96,NNE,14,0.0,9.0,50,0.00,,SKC,0.00,VWS V14.01,2013-07-03 09:49:00,
2013-07-03 04:50:00,71.5,51.9,29.96,NNE,14,0.0,9.0,50,0.00,,SKC,0.00,VWS V14.01,2013-07-03 09:50:00,
2013-07-03 04:55:00,71.4,51.8,29.96,NNE,14,0.0,9.0,50,0.00,,SKC,0.00,VWS V14.01,2013-07-03 09:55:00,
2013-07-03 05:00:00,71.4,51.8,29.96,NNE,15,1.0,9.0,50,0.00,,SKC,0.00,VWS V14.01,2013-07-03 10:00:00,
2013-07-03 05:01:00,71.3,52.3,29.96,NNE,15,0.0,6.0,51,0.00,,SKC,0.00,VWS V14.01,2013-07-03 10:01:00,
2013-07-03 05:04:00,71.2,52.2,29.96,NNE,15,5.0,6.0,51,0.00,,SKC,0.00,VWS V14.01,2013-07-03 10:04:00,
2013-07-03 05:05:00,71.2,52.2,29.96,NNE,14,3.0,6.0,51,0.00,,SKC,0.00,VWS V14.01,2013-07-03 10:05:00,
2013-07-03 05:10:00,71.1,52.1,29.96,NNE,14,0.0,5.0,51,0.00,,SKC,0.00,VWS V14.01,2013-07-03 10:10:00,
2013-07-03 05:15:00,71.0,52.0,29.96,NNE,14,1.0,6.0,51,0.00,,SKC,0.00,VWS V14.01,2013-07-03 10:15:00,
2013-07-03 05:20:00,71.1,52.1,29.96,NNE,15,2.0,5.0,51,0.00,,SKC,0.00,VWS V14.01,2013-07-03 10:20:00,
2013-07-03 05:25:00,71.1,52.1,29.95,NNE,15,4.0,6.0,51,0.00,,SKC,0.00,VWS V14.01,2013-07-03 10:25:00,
2013-07-03 05:30:00,71.2,52.2,29.95,NNE,15,0.0,5.0,51,0.00,,SKC,0.00,VWS V14.01,2013-07-03 10:30:00,
2013-07-03 05:31:00,71.2,52.2,29.96,NNE,15,0.0,5.0,51,0.00,,SKC,0.00,VWS V14.01,2013-07-03 10:31:00,
2013-07-03 05:36:00,71.2,52.2,29.95,NNE,15,0.0,1.0,51,0.00,,SKC,0.00,VWS V14.01,2013-07-03 10:36:00,
2013-07-03 05:40:00,71.2,52.2,29.96,NNE,14,0.0,5.0,51,0.00,,SKC,0.00,VWS V14.01,2013-07-03 10:40:00,
2013-07-03 05:41:00,71.1,52.6,29.95,NNE,15,0.0,5.0,52,0.00,,SKC,0.00,VWS V14.01,2013-07-03 10:41:00,
2013-07-03 05:46:00,71.1,52.6,29.96,NNE,15,2.0,2.0,52,0.00,,SKC,0.00,VWS V14.01,2013-07-03 10:46:00,
2013-07-03 05:49:00,71.0,52.5,29.96,NNE,15,4.0,6.0,52,0.00,,SKC,0.00,VWS V14.01,2013-07-03 10:49:00,
2013-07-03 05:50:00,71.1,52.6,29.95,NNE,15,1.0,7.0,52,0.00,,SKC,0.00,VWS V14.01,2013-07-03 10:50:00,
2013-07-03 05:54:00,71.0,52.5,29.96,NNE,15,4.0,6.0,52,0.00,,SKC,0.00,VWS V14.01,2013-07-03 10:54:00,
2013-07-03 05:55:00,71.0,52.5,29.96,NNE,15,3.0,6.0,52,0.00,,SKC,0.00,VWS V14.01,2013-07-03 10:55:00,
2013-07-03 05:57:00,71.0,52.5,29.96,NNE,15,0.0,4.0,52,0.00,,SKC,0.00,VWS V14.01,2013-07-03 10:57:00,
2013-07-03 06:00:00,71.0,52.5,29.96,NNE,15,1.0,6.0,52,0.00,,SKC,0.00,VWS V14.01,2013-07-03 11:00:00,
2013-07-03 06:02:00,70.9,52.4,29.96,NNE,15,0.0,7.0,52,0.00,,SKC,0.00,VWS V14.01,2013-07-03 11:02:00,
2013-07-03 06:07:00,70.8,52.3,29.96,NNE,15,0.0,4.0,52,0.00,,SKC,0.00,VWS V14.01,2013-07-03 11:07:00,
2013-07-03 06:08:00,70.8,52.3,29.96,NNE,15,0.0,4.0,52,0.00,,SKC,0.00,VWS V14.01,2013-07-03 11:08:00,
2013-07-03 06:09:00,70.8,52.3,29.96,NNE,15,0.0,4.0,52,0.00,,SKC,0.00,VWS V14.01,2013-07-03 11:09:00,
2013-07-03 06:10:00,70.8,52.3,29.96,NNE,15,0.0,7.0,52,0.00,,SKC,0.00,VWS V14.01,2013-07-03 11:10:00,
2013-07-03 06:14:00,70.6,52.7,29.96,NNE,15,0.0,4.0,53,0.00,,SKC,0.00,VWS V14.01,2013-07-03 11:14:00,
2013-07-03 06:19:00,70.5,52.6,29.96,NNE,15,0.0,2.0,53,0.00,,SKC,0.00,VWS V14.01,2013-07-03 11:19:00,
2013-07-03 06:20:00,70.6,52.7,29.96,NNE,15,0.0,5.0,53,0.00,,SKC,0.00,VWS V14.01,2013-07-03 11:20:00,
2013-07-03 06:23:00,70.4,52.5,29.96,NNE,15,0.0,2.0,53,0.00,,SKC,0.00,VWS V14.01,2013-07-03 11:23:00,
2013-07-03 06:25:00,70.4,52.5,29.96,NNE,15,0.0,2.0,53,0.00,,SKC,0.00,VWS V14.01,2013-07-03 11:25:00,
2013-07-03 06:30:00,70.2,52.8,29.96,NNE,15,0.0,3.0,54,0.00,,SKC,0.00,VWS V14.01,2013-07-03 11:30:00,
2013-07-03 06:35:00,70.0,52.6,29.96,NNE,15,0.0,3.0,54,0.00,,SKC,0.00,VWS V14.01,2013-07-03 11:35:00,
2013-07-03 06:40:00,69.8,52.9,29.96,North,5,0.0,1.0,55,0.00,,SKC,0.00,VWS V14.01,2013-07-03 11:40:00,
2013-07-03 06:45:00,69.5,52.6,29.96,North,5,0.0,4.0,55,0.00,,SKC,0.00,VWS V14.01,2013-07-03 11:45:00,
2013-07-03 06:50:00,69.4,52.5,29.96,North,5,0.0,2.0,55,0.00,,SKC,0.00,VWS V14.01,2013-07-03 11:50:00,
2013-07-03 06:55:00,69.2,52.8,29.96,North,5,0.0,2.0,56,0.00,,SKC,0.00,VWS V14.01,2013-07-03 11:55:00,
2013-07-03 06:59:00,69.1,52.8,29.96,North,5,0.0,0.0,56,0.00,,SKC,0.00,VWS V14.01,2013-07-03 11:59:00,
2013-07-03 07:00:00,69.2,52.8,29.96,North,5,0.0,2.0,56,0.00,,SKC,0.00,VWS V14.01,2013-07-03 12:00:00,
2013-07-03 07:02:00,69.1,53.2,29.96,North,5,0.0,0.0,57,0.00,,SKC,0.00,VWS V14.01,2013-07-03 12:02:00,
2013-07-03 07:07:00,69.2,52.8,29.96,North,5,0.0,0.0,56,0.00,,SKC,0.00,VWS V14.01,2013-07-03 12:07:00,
2013-07-03 07:10:00,69.2,52.8,29.96,North,5,0.0,0.0,56,0.00,,SKC,0.00,VWS V14.01,2013-07-03 12:10:00,
2013-07-03 07:12:00,69.4,53.5,29.95,North,5,0.0,0.0,57,0.00,,SKC,0.00,VWS V14.01,2013-07-03 12:12:00,
2013-07-03 07:16:00,69.4,54.0,29.96,North,5,0.0,0.0,58,0.00,,SKC,0.00,VWS V14.01,2013-07-03 12:16:00,
2013-07-03 07:20:00,69.7,53.8,29.96,North,5,0.0,5.0,57,0.00,,SKC,0.00,VWS V14.01,2013-07-03 12:20:00,
2013-07-03 07:25:00,70.3,54.4,29.96,North,5,0.0,5.0,57,0.00,,SKC,0.00,VWS V14.01,2013-07-03 12:25:00,
2013-07-03 07:30:00,71.0,54.0,29.96,North,5,2.0,5.0,55,0.00,,SKC,0.00,VWS V14.01,2013-07-03 12:30:00,
2013-07-03 07:35:00,71.8,54.3,29.96,North,360,0.0,7.0,54,0.00,,SKC,0.00,VWS V14.01,2013-07-03 12:35:00,
2013-07-03 07:40:00,72.5,54.4,29.96,North,360,0.0,6.0,53,0.00,,SKC,0.00,VWS V14.01,2013-07-03 12:40:00,
2013-07-03 07:45:00,73.2,55.1,29.97,North,360,0.0,6.0,53,0.00,,SKC,0.00,VWS V14.01,2013-07-03 12:45:00,
2013-07-03 07:46:00,73.3,55.2,29.97,North,360,0.0,0.0,53,0.00,,SKC,0.00,VWS V14.01,2013-07-03 12:46:00,
2013-07-03 07:50:00,73.2,55.1,29.97,North,360,0.0,6.0,53,0.00,,SKC,0.00,VWS V14.01,2013-07-03 12:50:00,
2013-07-03 07:51:00,73.8,55.1,29.97,North,360,0.0,4.0,52,0.00,,SKC,0.00,VWS V14.01,2013-07-03 12:51:00,
2013-07-03 07:56:00,74.3,55.6,29.98,North,360,0.0,0.0,52,0.00,,SKC,0.00,VWS V14.01,2013-07-03 12:56:00,
2013-07-03 08:00:00,74.2,55.5,29.98,North,360,0.0,4.0,52,0.00,,SKC,0.00,VWS V14.01,2013-07-03 13:00:00,
2013-07-03 08:01:00,74.8,56.0,29.98,North,360,0.0,1.0,52,0.00,,SKC,0.00,VWS V14.01,2013-07-03 13:01:00,
2013-07-03 08:07:00,75.3,56.5,29.98,North,360,0.0,0.0,52,0.00,,SKC,0.00,VWS V14.01,2013-07-03 13:07:00,
2013-07-03 08:10:00,75.2,55.8,29.98,North,360,0.0,4.0,51,0.00,,SKC,0.00,VWS V14.01,2013-07-03 13:10:00,
2013-07-03 08:12:00,75.9,57.0,29.98,North,360,0.0,0.0,52,0.00,,SKC,0.00,VWS V14.01,2013-07-03 13:12:00,
2013-07-03 08:17:00,76.6,56.6,29.98,North,360,0.0,0.0,50,0.00,,SKC,0.00,VWS V14.01,2013-07-03 13:17:00,
2013-07-03 08:20:00,76.4,56.4,29.98,North,360,0.0,5.0,50,0.00,,SKC,0.00,VWS V14.01,2013-07-03 13:20:00,
2013-07-03 08:22:00,77.2,57.1,29.98,North,360,0.0,2.0,50,0.00,,SKC,0.00,VWS V14.01,2013-07-03 13:22:00,
2013-07-03 08:25:00,77.7,57.0,29.98,North,360,0.0,2.0,49,0.00,,SKC,0.00,VWS V14.01,2013-07-03 13:25:00,
2013-07-03 08:30:00,78.3,57.0,29.98,North,360,0.0,1.0,48,0.00,,SKC,0.00,VWS V14.01,2013-07-03 13:30:00,
2013-07-03 08:35:00,79.0,57.1,29.98,North,360,0.0,1.0,47,0.00,,SKC,0.00,VWS V14.01,2013-07-03 13:35:00,
2013-07-03 08:38:00,79.5,57.5,29.99,North,360,0.0,0.0,47,0.00,,SKC,0.00,VWS V14.01,2013-07-03 13:38:00,
2013-07-03 08:40:00,79.1,57.2,29.98,North,360,0.0,1.0,47,0.00,,SKC,0.00,VWS V14.01,2013-07-03 13:40:00,
2013-07-03 08:43:00,80.3,57.7,29.99,North,360,0.0,4.0,46,0.00,,SKC,0.00,VWS V14.01,2013-07-03 13:43:00,
2013-07-03 08:48:00,81.2,57.2,29.98,North,360,0.0,5.0,44,0.00,,SKC,0.00,VWS V14.01,2013-07-03 13:48:00,
2013-07-03 08:50:00,80.7,57.4,29.98,North,360,0.0,4.0,45,0.00,,SKC,0.00,VWS V14.01,2013-07-03 13:50:00,
2013-07-03 08:53:00,82.0,57.3,29.98,North,360,0.0,5.0,43,0.00,,SKC,0.00,VWS V14.01,2013-07-03 13:53:00,
2013-07-03 08:58:00,82.7,58.0,29.98,North,360,0.0,7.0,43,0.00,,SKC,0.00,VWS V14.01,2013-07-03 13:58:00,
2013-07-03 09:00:00,82.4,57.7,29.98,North,360,0.0,5.0,43,0.00,,SKC,0.00,VWS V14.01,2013-07-03 14:00:00,
2013-07-03 09:04:00,83.5,58.0,29.98,North,9,0.0,7.0,42,0.00,,SKC,0.00,VWS V14.01,2013-07-03 14:04:00,
2013-07-03 09:06:00,83.7,57.5,29.98,North,5,3.0,7.0,41,0.00,,SKC,0.00,VWS V14.01,2013-07-03 14:06:00,
2013-07-03 09:09:00,84.0,57.8,29.98,North,5,1.0,8.0,41,0.00,,SKC,0.00,VWS V14.01,2013-07-03 14:09:00,
2013-07-03 09:10:00,83.7,57.5,29.98,North,5,3.0,7.0,41,0.00,,SKC,0.00,VWS V14.01,2013-07-03 14:10:00,
2013-07-03 09:14:00,84.2,57.3,29.98,North,5,5.0,8.0,40,0.00,,SKC,0.00,VWS V14.01,2013-07-03 14:14:00,
2013-07-03 09:18:00,84.4,57.5,29.99,North,5,0.0,9.0,40,0.00,,SKC,0.00,VWS V14.01,2013-07-03 14:18:00,
2013-07-03 09:20:00,84.3,57.4,29.99,North,5,2.0,8.0,40,0.00,,SKC,0.00,VWS V14.01,2013-07-03 14:20:00,
2013-07-03 09:23:00,84.9,57.9,29.99,North,5,5.0,9.0,40,0.00,,SKC,0.00,VWS V14.01,2013-07-03 14:23:00,
2013-07-03 09:28:00,85.5,57.7,29.99,North,11,2.0,9.0,39,0.00,,SKC,0.00,VWS V14.01,2013-07-03 14:28:00,
2013-07-03 09:30:00,85.7,57.9,29.99,North,11,0.0,9.0,39,0.00,,SKC,0.00,VWS V14.01,2013-07-03 14:30:00,
2013-07-03 09:35:00,86.2,58.4,29.99,North,11,0.0,9.0,39,0.00,,SKC,0.00,VWS V14.01,2013-07-03 14:35:00,
2013-07-03 09:38:00,86.5,57.9,29.99,NNE,16,7.0,9.0,38,0.00,,SKC,0.00,VWS V14.01,2013-07-03 14:38:00,
2013-07-03 09:40:00,86.2,58.4,29.99,North,11,0.0,9.0,39,0.00,,SKC,0.00,VWS V14.01,2013-07-03 14:40:00,
2013-07-03 09:41:00,86.8,58.2,29.99,NNE,19,0.0,9.0,38,0.00,,SKC,0.00,VWS V14.01,2013-07-03 14:41:00,
2013-07-03 09:46:00,87.2,57.8,29.99,NNE,19,1.0,5.0,37,0.00,,SKC,0.00,VWS V14.01,2013-07-03 14:46:00,
2013-07-03 09:50:00,87.1,57.7,29.99,NNE,19,2.0,9.0,37,0.00,,SKC,0.00,VWS V14.01,2013-07-03 14:50:00,
2013-07-03 09:51:00,87.5,58.0,29.99,NNE,20,0.0,5.0,37,0.00,,SKC,0.00,VWS V14.01,2013-07-03 14:51:00,
2013-07-03 09:56:00,88.0,57.7,29.99,NNE,20,0.0,5.0,36,0.00,,SKC,0.00,VWS V14.01,2013-07-03 14:56:00,
2013-07-03 09:58:00,88.2,57.9,29.99,NNE,20,2.0,4.0,36,0.00,,SKC,0.00,VWS V14.01,2013-07-03 14:58:00,
2013-07-03 10:00:00,88.0,57.7,29.99,NNE,20,0.0,5.0,36,0.00,,SKC,0.00,VWS V14.01,2013-07-03 15:00:00,
2013-07-03 10:03:00,88.6,59.0,29.99,NNE,20,0.0,6.0,37,0.00,,SKC,0.00,VWS V14.01,2013-07-03 15:03:00,
2013-07-03 10:08:00,89.1,58.7,29.99,NNE,20,0.0,5.0,36,0.00,,SKC,0.00,VWS V14.01,2013-07-03 15:08:00,
2013-07-03 10:10:00,88.9,58.5,29.99,NNE,20,0.0,6.0,36,0.00,,SKC,0.00,VWS V14.01,2013-07-03 15:10:00,
2013-07-03 10:14:00,89.6,58.3,29.99,NNE,22,1.0,7.0,35,0.00,,SKC,0.00,VWS V14.01,2013-07-03 15:14:00,
2013-07-03 10:15:00,89.6,58.3,29.99,NNE,22,0.0,7.0,35,0.00,,SKC,0.00,VWS V14.01,2013-07-03 15:15:00,
2013-07-03 10:20:00,89.9,58.6,29.99,NNE,22,0.0,5.0,35,0.00,,SKC,0.00,VWS V14.01,2013-07-03 15:20:00,
2013-07-03 10:25:00,90.1,58.0,29.99,NNE,22,0.0,5.0,34,0.00,,SKC,0.00,VWS V14.01,2013-07-03 15:25:00,
2013-07-03 10:28:00,90.3,58.2,29.99,NNE,22,0.0,3.0,34,0.00,,SKC,0.00,VWS V14.01,2013-07-03 15:28:00,
2013-07-03 10:30:00,90.2,58.1,29.99,NNE,22,0.0,5.0,34,0.00,,SKC,0.00,VWS V14.01,2013-07-03 15:30:00,
2013-07-03 10:33:00,90.7,58.5,29.99,NNE,22,0.0,3.0,34,0.00,,SKC,0.00,VWS V14.01,2013-07-03 15:33:00,
2013-07-03 10:38:00,91.1,58.8,29.99,NNE,22,0.0,0.0,34,0.00,,SKC,0.00,VWS V14.01,2013-07-03 15:38:00,
2013-07-03 10:40:00,91.3,58.2,29.99,NNE,22,1.0,1.0,33,0.00,,SKC,0.00,VWS V14.01,2013-07-03 15:40:00,
2013-07-03 10:45:00,91.8,56.0,29.99,NNE,22,1.0,4.0,30,0.00,,SKC,0.00,VWS V14.01,2013-07-03 15:45:00,
2013-07-03 10:50:00,92.0,54.3,29.98,NNE,22,3.0,4.0,28,0.00,,SKC,0.00,VWS V14.01,2013-07-03 15:50:00,
2013-07-03 10:52:00,92.2,55.4,29.99,NNE,23,0.0,4.0,29,0.00,,SKC,0.00,VWS V14.01,2013-07-03 15:52:00,
2013-07-03 10:57:00,92.4,52.6,29.98,NNE,25,0.0,5.0,26,0.00,,SKC,0.00,VWS V14.01,2013-07-03 15:57:00,
2013-07-03 11:00:00,92.4,53.6,29.98,NNE,24,3.0,4.0,27,0.00,,SKC,0.00,VWS V14.01,2013-07-03 16:00:00,
2013-07-03 11:02:00,92.6,54.8,29.98,NNE,25,1.0,5.0,28,0.00,,SKC,0.00,VWS V14.01,2013-07-03 16:02:00,
2013-07-03 11:07:00,92.9,55.0,29.98,NNE,27,0.0,7.0,28,0.00,,SKC,0.00,VWS V14.01,2013-07-03 16:07:00,
2013-07-03 11:10:00,92.8,55.9,29.98,NNE,27,7.0,7.0,29,0.00,,SKC,0.00,VWS V14.01,2013-07-03 16:10:00,
2013-07-03 11:12:00,93.0,54.1,29.98,NNE,27,0.0,7.0,27,0.00,,SKC,0.00,VWS V14.01,2013-07-03 16:12:00,
2013-07-03 11:17:00,93.3,52.3,29.98,NNE,27,0.0,0.0,25,0.00,,SKC,0.00,VWS V14.01,2013-07-03 16:17:00,
2013-07-03 11:20:00,93.2,51.1,29.98,NNE,27,0.0,7.0,24,0.00,,SKC,0.00,VWS V14.01,2013-07-03 16:20:00,
2013-07-03 11:22:00,93.5,50.2,29.98,NNE,27,0.0,8.0,23,0.00,,SKC,0.00,VWS V14.01,2013-07-03 16:22:00,
2013-07-03 11:28:00,93.5,50.2,29.98,NNE,27,0.0,4.0,23,0.00,,SKC,0.00,VWS V14.01,2013-07-03 16:28:00,
2013-07-03 11:30:00,93.6,49.1,29.98,NNE,27,0.0,8.0,22,0.00,,SKC,0.00,VWS V14.01,2013-07-03 16:30:00,
2013-07-03 11:33:00,93.4,50.1,29.98,NNE,27,0.0,5.0,23,0.00,,SKC,0.00,VWS V14.01,2013-07-03 16:33:00,
2013-07-03 11:38:00,93.7,49.2,29.98,NNE,27,0.0,0.0,22,0.00,,SKC,0.00,VWS V14.01,2013-07-03 16:38:00,
2013-07-03 11:40:00,93.6,50.3,29.98,NNE,27,0.0,5.0,23,0.00,,SKC,0.00,VWS V14.01,2013-07-03 16:40:00,
2013-07-03 11:43:00,94.2,50.8,29.98,NNE,27,0.0,2.0,23,0.00,,SKC,0.00,VWS V14.01,2013-07-03 16:43:00,
2013-07-03 11:48:00,94.2,50.8,29.97,NNE,30,0.0,5.0,23,0.00,,SKC,0.00,VWS V14.01,2013-07-03 16:48:00,
2013-07-03 11:50:00,94.3,50.8,29.97,NNE,27,0.0,2.0,23,0.00,,SKC,0.00,VWS V14.01,2013-07-03 16:50:00,
2013-07-03 11:53:00,94.0,51.8,29.97,NNE,30,0.0,5.0,24,0.00,,SKC,0.00,VWS V14.01,2013-07-03 16:53:00,
2013-07-03 11:58:00,94.0,50.6,29.97,NNE,30,0.0,1.0,23,0.00,,SKC,0.00,VWS V14.01,2013-07-03 16:58:00,
2013-07-03 12:00:00,93.9,52.8,29.97,NNE,30,0.0,5.0,25,0.00,,SKC,0.00,VWS V14.01,2013-07-03 17:00:00,
2013-07-03 12:04:00,94.5,48.6,29.97,NNE,25,0.0,7.0,21,0.00,,SKC,0.00,VWS V14.01,2013-07-03 17:04:00,
2013-07-03 12:09:00,94.7,50.0,29.97,NNE,24,0.0,5.0,22,0.00,,SKC,0.00,VWS V14.01,2013-07-03 17:09:00,
2013-07-03 12:10:00,94.5,49.8,29.97,NNE,25,3.0,7.0,22,0.00,,SKC,0.00,VWS V14.01,2013-07-03 17:10:00,
2013-07-03 12:14:00,94.9,51.3,29.97,NNE,24,0.0,5.0,23,0.00,,SKC,0.00,VWS V14.01,2013-07-03 17:14:00,
2013-07-03 12:19:00,95.2,50.4,29.97,NNE,24,0.0,3.0,22,0.00,,SKC,0.00,VWS V14.01,2013-07-03 17:19:00,
2013-07-03 12:20:00,95.1,50.3,29.97,NNE,24,0.0,5.0,22,0.00,,SKC,0.00,VWS V14.01,2013-07-03 17:20:00,
2013-07-03 12:24:00,95.0,47.7,29.97,NNE,24,0.0,3.0,20,0.00,,SKC,0.00,VWS V14.01,2013-07-03 17:24:00,
2013-07-03 12:29:00,95.2,50.4,29.97,NNE,24,0.0,1.0,22,0.00,,SKC,0.00,VWS V14.01,2013-07-03 17:29:00,
2013-07-03 12:30:00,95.1,49.1,29.97,NNE,24,0.0,3.0,21,0.00,,SKC,0.00,VWS V14.01,2013-07-03 17:30:00,
2013-07-03 12:34:00,95.0,49.0,29.96,NNE,24,0.0,1.0,21,0.00,,SKC,0.00,VWS V14.01,2013-07-03 17:34:00,
2013-07-03 12:39:00,95.0,50.2,29.96,NNE,24,0.0,2.0,22,0.00,,SKC,0.00,VWS V14.01,2013-07-03 17:39:00,
2013-07-03 12:40:00,94.9,51.3,29.96,NNE,24,0.0,1.0,23,0.00,,SKC,0.00,VWS V14.01,2013-07-03 17:40:00,
2013-07-03 12:44:00,95.3,50.5,29.96,NNE,28,1.0,6.0,22,0.00,,SKC,0.00,VWS V14.01,2013-07-03 17:44:00,
2013-07-03 12:49:00,95.5,49.4,29.96,NNE,28,3.0,5.0,21,0.00,,SKC,0.00,VWS V14.01,2013-07-03 17:49:00,
2013-07-03 12:50:00,95.3,51.7,29.96,NNE,28,0.0,6.0,23,0.00,,SKC,0.00,VWS V14.01,2013-07-03 17:50:00,
2013-07-03 12:54:00,95.5,51.8,29.96,NNE,28,4.0,5.0,23,0.00,,SKC,0.00,VWS V14.01,2013-07-03 17:54:00,
2013-07-03 12:59:00,95.3,51.7,29.95,NNE,28,0.0,2.0,23,0.00,,SKC,0.00,VWS V14.01,2013-07-03 17:59:00,
2013-07-03 13:00:00,95.4,49.3,29.96,NNE,28,1.0,5.0,21,0.00,,SKC,0.00,VWS V14.01,2013-07-03 18:00:00,
2013-07-03 13:04:00,95.1,49.1,29.95,NNE,32,3.0,7.0,21,0.00,,SKC,0.00,VWS V14.01,2013-07-03 18:04:00,
2013-07-03 13:09:00,95.0,51.4,29.95,NNE,33,0.0,3.0,23,0.00,,SKC,0.00,VWS V14.01,2013-07-03 18:09:00,
2013-07-03 13:10:00,95.1,50.3,29.95,NNE,32,0.0,7.0,22,0.00,,SKC,0.00,VWS V14.01,2013-07-03 18:10:00,
2013-07-03 13:14:00,95.0,52.6,29.94,NNE,33,0.0,3.0,24,0.00,,SKC,0.00,VWS V14.01,2013-07-03 18:14:00,
2013-07-03 13:20:00,95.3,49.2,29.94,NNE,33,0.0,0.0,21,0.00,,SKC,0.00,VWS V14.01,2013-07-03 18:20:00,
2013-07-03 13:25:00,95.7,50.8,29.94,NNE,33,0.0,3.0,22,0.00,,SKC,0.00,VWS V14.01,2013-07-03 18:25:00,
2013-07-03 13:30:00,95.9,52.2,29.94,NE,34,4.0,6.0,23,0.00,,SKC,0.00,VWS V14.01,2013-07-03 18:30:00,
2013-07-03 13:35:00,96.1,48.6,29.94,NE,34,0.0,6.0,20,0.00,,SKC,0.00,VWS V14.01,2013-07-03 18:35:00,
2013-07-03 13:40:00,96.4,51.4,29.94,NE,37,4.0,10.0,22,0.00,,SKC,0.00,VWS V14.01,2013-07-03 18:40:00,
2013-07-03 13:45:00,96.8,50.5,29.94,NE,37,0.0,10.0,21,0.00,,SKC,0.00,VWS V14.01,2013-07-03 18:45:00,
2013-07-03 13:50:00,96.9,49.2,29.94,NE,37,0.0,0.0,20,0.00,,SKC,0.00,VWS V14.01,2013-07-03 18:50:00,
2013-07-03 13:55:00,96.8,51.7,29.94,NE,37,2.0,2.0,22,0.00,,SKC,0.00,VWS V14.01,2013-07-03 18:55:00,
2013-07-03 14:00:00,97.0,49.3,29.93,NE,37,0.0,3.0,20,0.00,,SKC,0.00,VWS V14.01,2013-07-03 19:00:00,
2013-07-03 14:05:00,97.1,49.4,29.93,NE,37,0.0,3.0,20,0.00,,SKC,0.00,VWS V14.01,2013-07-03 19:05:00,
2013-07-03 14:10:00,96.9,50.5,29.93,NE,42,3.0,8.0,21,0.00,,SKC,0.00,VWS V14.01,2013-07-03 19:10:00,
2013-07-03 14:15:00,97.1,49.4,29.92,NE,44,1.0,8.0,20,0.00,,SKC,0.00,VWS V14.01,2013-07-03 19:15:00,
2013-07-03 14:20:00,96.9,47.9,29.92,NE,51,0.0,7.0,19,0.00,,SKC,0.00,VWS V14.01,2013-07-03 19:20:00,
2013-07-03 14:25:00,96.4,48.8,29.92,NE,52,1.0,7.0,20,0.00,,SKC,0.00,VWS V14.01,2013-07-03 19:25:00,
2013-07-03 14:30:00,96.2,48.7,29.92,NE,53,0.0,5.0,20,0.00,,SKC,0.00,VWS V14.01,2013-07-03 19:30:00,
2013-07-03 14:35:00,96.3,50.0,29.92,NE,53,0.0,5.0,21,0.00,,SKC,0.00,VWS V14.01,2013-07-03 19:35:00,
2013-07-03 14:40:00,96.4,48.8,29.92,NE,53,0.0,7.0,20,0.00,,SKC,0.00,VWS V14.01,2013-07-03 19:40:00,
2013-07-03 14:46:00,96.6,49.0,29.91,NE,53,4.0,7.0,20,0.00,,SKC,0.00,VWS V14.01,2013-07-03 19:46:00,
2013-07-03 14:50:00,96.6,49.0,29.91,NE,53,2.0,7.0,20,0.00,,SKC,0.00,VWS V14.01,2013-07-03 19:50:00,
2013-07-03 14:51:00,96.9,49.2,29.91,NE,53,0.0,2.0,20,0.00,,SKC,0.00,VWS V14.01,2013-07-03 19:51:00,
2013-07-03 14:56:00,97.3,48.2,29.91,NE,53,0.0,0.0,19,0.00,,SKC,0.00,VWS V14.01,2013-07-03 19:56:00,
2013-07-03 15:00:00,97.3,48.2,29.91,NE,53,0.0,2.0,19,0.00,,SKC,0.00,VWS V14.01,2013-07-03 20:00:00,
2013-07-03 15:01:00,97.6,49.8,29.91,NE,53,0.0,3.0,20,0.00,,SKC,0.00,VWS V14.01,2013-07-03 20:01:00,
2013-07-03 15:06:00,97.4,51.0,29.91,NE,53,2.0,2.0,21,0.00,,SKC,0.00,VWS V14.01,2013-07-03 20:06:00,
2013-07-03 15:10:00,97.4,51.0,29.91,NE,53,2.0,6.0,21,0.00,,SKC,0.00,VWS V14.01,2013-07-03 20:10:00,
2013-07-03 15:11:00,97.3,50.9,29.90,NE,49,0.0,8.0,21,0.00,,SKC,0.00,VWS V14.01,2013-07-03 20:11:00,
2013-07-03 15:16:00,97.5,52.3,29.90,NE,49,1.0,3.0,22,0.00,,SKC,0.00,VWS V14.01,2013-07-03 20:16:00,
2013-07-03 15:20:00,97.5,52.3,29.90,NE,49,1.0,8.0,22,0.00,,SKC,0.00,VWS V14.01,2013-07-03 20:20:00,
2013-07-03 15:21:00,97.8,51.3,29.91,NE,49,3.0,3.0,21,0.00,,SKC,0.00,VWS V14.01,2013-07-03 20:21:00,
2013-07-03 15:27:00,98.2,48.9,29.90,NE,52,3.0,5.0,19,0.00,,SKC,0.00,VWS V14.01,2013-07-03 20:27:00,
2013-07-03 15:30:00,98.1,51.5,29.90,NE,52,0.0,8.0,21,0.00,,SKC,0.00,VWS V14.01,2013-07-03 20:30:00,
2013-07-03 15:32:00,98.0,48.8,29.90,NE,54,0.0,7.0,19,0.00,,SKC,0.00,VWS V14.01,2013-07-03 20:32:00,
2013-07-03 15:37:00,97.2,48.1,29.90,ENE,57,0.0,1.0,19,0.00,,SKC,0.00,VWS V14.01,2013-07-03 20:37:00,
2013-07-03 15:40:00,97.4,46.8,29.90,ENE,57,0.0,7.0,18,0.00,,SKC,0.00,VWS V14.01,2013-07-03 20:40:00,
2013-07-03 15:42:00,96.9,49.2,29.90,ENE,57,0.0,4.0,20,0.00,,SKC,0.00,VWS V14.01,2013-07-03 20:42:00,
2013-07-03 15:47:00,96.8,50.5,29.90,ENE,57,0.0,3.0,21,0.00,,SKC,0.00,VWS V14.01,2013-07-03 20:47:00,
2013-07-03 15:50:00,96.8,50.5,29.90,ENE,57,0.0,4.0,21,0.00,,SKC,0.00,VWS V14.01,2013-07-03 20:50:00,
2013-07-03 15:52:00,97.0,50.6,29.90,ENE,57,0.0,4.0,21,0.00,,SKC,0.00,VWS V14.01,2013-07-03 20:52:00,
2013-07-03 15:57:00,97.4,49.7,29.89,ENE,57,0.0,5.0,20,0.00,,SKC,0.00,VWS V14.01,2013-07-03 20:57:00,
2013-07-03 16:00:00,97.3,50.9,29.90,ENE,57,0.0,4.0,21,0.00,,SKC,0.00,VWS V14.01,2013-07-03 21:00:00,
2013-07-03 16:02:00,97.6,49.8,29.89,ENE,57,1.0,5.0,20,0.00,,SKC,0.00,VWS V14.01,2013-07-03 21:02:00,
2013-07-03 16:07:00,97.8,52.5,29.89,ENE,57,2.0,3.0,22,0.00,,SKC,0.00,VWS V14.01,2013-07-03 21:07:00,
2013-07-03 16:10:00,97.7,49.9,29.89,ENE,57,0.0,5.0,20,0.00,,SKC,0.00,VWS V14.01,2013-07-03 21:10:00,
2013-07-03 16:12:00,98.3,51.7,29.89,ENE,57,0.0,3.0,21,0.00,,SKC,0.00,VWS V14.01,2013-07-03 21:12:00,
2013-07-03 16:18:00,98.4,49.1,29.89,ENE,57,0.0,2.0,19,0.00,,SKC,0.00,VWS V14.01,2013-07-03 21:18:00,
2013-07-03 16:20:00,98.4,50.5,29.89,ENE,57,0.0,3.0,20,0.00,,SKC,0.00,VWS V14.01,2013-07-03 21:20:00,
2013-07-03 16:23:00,98.2,48.9,29.88,ENE,57,1.0,3.0,19,0.00,,SKC,0.00,VWS V14.01,2013-07-03 21:23:00,
2013-07-03 16:28:00,97.9,50.1,29.88,ENE,62,0.0,9.0,20,0.00,,SKC,0.00,VWS V14.01,2013-07-03 21:28:00,
2013-07-03 16:30:00,98.1,51.5,29.88,ENE,59,1.0,8.0,21,0.00,,SKC,0.00,VWS V14.01,2013-07-03 21:30:00,
2013-07-03 16:33:00,97.4,51.0,29.88,ENE,62,1.0,10.0,21,0.00,,SKC,0.00,VWS V14.01,2013-07-03 21:33:00,
2013-07-03 16:39:00,97.2,49.5,29.88,ENE,62,0.0,2.0,20,0.00,,SKC,0.00,VWS V14.01,2013-07-03 21:39:00,
2013-07-03 16:40:00,97.3,49.6,29.88,ENE,62,2.0,10.0,20,0.00,,SKC,0.00,VWS V14.01,2013-07-03 21:40:00,
2013-07-03 16:44:00,97.1,50.7,29.88,ENE,62,0.0,2.0,21,0.00,,SKC,0.00,VWS V14.01,2013-07-03 21:44:00,
2013-07-03 16:49:00,97.1,50.7,29.87,ENE,62,1.0,4.0,21,0.00,,SKC,0.00,VWS V14.01,2013-07-03 21:49:00,
2013-07-03 16:50:00,97.0,49.3,29.88,ENE,62,0.0,2.0,20,0.00,,SKC,0.00,VWS V14.01,2013-07-03 21:50:00,
2013-07-03 16:54:00,97.0,49.3,29.87,ENE,63,0.0,7.0,20,0.00,,SKC,0.00,VWS V14.01,2013-07-03 21:54:00,
2013-07-03 17:00:00,97.0,49.3,29.87,ENE,63,1.0,3.0,20,0.00,,SKC,0.00,VWS V14.01,2013-07-03 22:00:00,
2013-07-03 17:05:00,97.1,49.4,29.87,ENE,63,0.0,7.0,20,0.00,,SKC,0.00,VWS V14.01,2013-07-03 22:05:00,
2013-07-03 17:10:00,97.1,49.4,29.87,ENE,63,0.0,2.0,20,0.00,,SKC,0.00,VWS V14.01,2013-07-03 22:10:00,
2013-07-03 17:15:00,97.2,48.1,29.87,ENE,63,0.0,2.0,19,0.00,,SKC,0.00,VWS V14.01,2013-07-03 22:15:00,
2013-07-03 17:20:00,97.3,49.6,29.86,ENE,63,0.0,0.0,20,0.00,,SKC,0.00,VWS V14.01,2013-07-03 22:20:00,
2013-07-03 17:25:00,97.6,48.4,29.86,ENE,63,0.0,3.0,19,0.00,,SKC,0.00,VWS V14.01,2013-07-03 22:25:00,
2013-07-03 17:29:00,97.6,48.4,29.86,ENE,63,0.0,1.0,19,0.00,,SKC,0.00,VWS V14.01,2013-07-03 22:29:00,
2013-07-03 17:30:00,97.6,48.4,29.86,ENE,63,0.0,3.0,19,0.00,,SKC,0.00,VWS V14.01,2013-07-03 22:30:00,
2013-07-03 17:34:00,97.5,49.7,29.86,ENE,63,2.0,4.0,20,0.00,,SKC,0.00,VWS V14.01,2013-07-03 22:34:00,
2013-07-03 17:39:00,97.2,49.5,29.86,ENE,65,0.0,11.0,20,0.00,,SKC,0.00,VWS V14.01,2013-07-03 22:39:00,
2013-07-03 17:40:00,97.4,49.7,29.85,East,98,6.0,13.0,20,0.00,,SKC,0.00,VWS V14.01,2013-07-03 22:40:00,
2013-07-03 17:44:00,96.7,47.7,29.86,ENE,65,1.0,11.0,19,0.00,,SKC,0.00,VWS V14.01,2013-07-03 22:44:00,
2013-07-03 17:49:00,96.2,48.7,29.85,ENE,65,0.0,0.0,20,0.00,,SKC,0.00,VWS V14.01,2013-07-03 22:49:00,
2013-07-03 17:50:00,96.6,47.6,29.86,ENE,65,0.0,11.0,19,0.00,,SKC,0.00,VWS V14.01,2013-07-03 22:50:00,
2013-07-03 17:54:00,95.7,48.3,29.85,ENE,65,0.0,2.0,20,0.00,,SKC,0.00,VWS V14.01,2013-07-03 22:54:00,
2013-07-03 17:59:00,95.4,48.0,29.85,ENE,65,0.0,1.0,20,0.00,,SKC,0.00,VWS V14.01,2013-07-03 22:59:00,
2013-07-03 18:00:00,95.6,48.2,29.86,ENE,65,0.0,2.0,20,0.00,,SKC,0.00,VWS V14.01,2013-07-03 23:00:00,
2013-07-03 18:05:00,95.1,49.1,29.85,ENE,65,0.0,1.0,21,0.00,,SKC,0.00,VWS V14.01,2013-07-03 23:05:00,
2013-07-03 18:10:00,94.9,47.6,29.85,ENE,65,0.0,0.0,20,0.00,,SKC,0.00,VWS V14.01,2013-07-03 23:10:00,
2013-07-03 18:15:00,94.6,47.4,29.84,ENE,65,0.0,1.0,20,0.00,,SKC,0.00,VWS V14.01,2013-07-03 23:15:00,
2013-07-03 18:20:00,94.4,47.2,29.84,ENE,65,0.0,1.0,20,0.00,,SKC,0.00,VWS V14.01,2013-07-03 23:20:00,
2013-07-03 18:25:00,94.1,49.5,29.84,ENE,65,0.0,2.0,22,0.00,,SKC,0.00,VWS V14.01,2013-07-03 23:25:00,
2013-07-03 18:30:00,94.1,48.2,29.85,ENE,65,1.0,3.0,21,0.00,,SKC,0.00,VWS V14.01,2013-07-03 23:30:00,
2013-07-03 18:35:00,94.0,48.2,29.84,ENE,65,0.0,3.0,21,0.00,,SKC,0.00,VWS V14.01,2013-07-03 23:35:00,
2013-07-03 18:40:00,94.0,48.2,29.84,ENE,65,0.0,3.0,21,0.00,,SKC,0.00,VWS V14.01,2013-07-03 23:40:00,
2013-07-03 18:41:00,93.8,48.0,29.85,ENE,65,0.0,3.0,21,0.00,,SKC,0.00,VWS V14.01,2013-07-03 23:41:00,
2013-07-03 18:46:00,93.7,49.2,29.85,ENE,65,0.0,0.0,22,0.00,,SKC,0.00,VWS V14.01,2013-07-03 23:46:00,
2013-07-03 18:50:00,93.7,47.9,29.84,ENE,65,0.0,3.0,21,0.00,,SKC,0.00,VWS V14.01,2013-07-03 23:50:00,
2013-07-03 18:51:00,93.5,47.8,29.85,ENE,65,0.0,1.0,21,0.00,,SKC,0.00,VWS V14.01,2013-07-03 23:51:00,
2013-07-03 18:56:00,93.3,47.6,29.85,ENE,65,0.0,0.0,21,0.00,,SKC,0.00,VWS V14.01,2013-07-03 23:56:00,
2013-07-03 19:00:00,93.3,47.6,29.85,ENE,65,0.0,1.0,21,0.00,,SKC,0.00,VWS V14.01,2013-07-04 00:00:00,
2013-07-03 19:01:00,93.1,47.4,29.85,ENE,65,0.0,0.0,21,0.00,,SKC,0.00,VWS V14.01,2013-07-04 00:01:00,
2013-07-03 19:06:00,93.0,47.3,29.85,ENE,63,0.0,0.0,21,0.00,,SKC,0.00,VWS V14.01,2013-07-04 00:06:00,
2013-07-03 19:10:00,93.0,47.3,29.84,ENE,65,0.0,0.0,21,0.00,,SKC,0.00,VWS V14.01,2013-07-04 00:10:00,
2013-07-03 19:11:00,92.9,47.2,29.84,ENE,63,0.0,0.0,21,0.00,,SKC,0.00,VWS V14.01,2013-07-04 00:11:00,
2013-07-03 19:16:00,92.8,47.2,29.85,ENE,63,0.0,0.0,21,0.00,,SKC,0.00,VWS V14.01,2013-07-04 00:16:00,
2013-07-03 19:20:00,92.8,47.2,29.85,ENE,63,0.0,0.0,21,0.00,,SKC,0.00,VWS V14.01,2013-07-04 00:20:00,
2013-07-03 19:21:00,92.7,48.3,29.85,ENE,63,0.0,0.0,22,0.00,,SKC,0.00,VWS V14.01,2013-07-04 00:21:00,
2013-07-03 19:27:00,92.5,48.2,29.85,ENE,63,0.0,1.0,22,0.00,,SKC,0.00,VWS V14.01,2013-07-04 00:27:00,
2013-07-03 19:30:00,92.6,48.2,29.85,ENE,63,1.0,1.0,22,0.00,,SKC,0.00,VWS V14.01,2013-07-04 00:30:00,
2013-07-03 19:32:00,92.3,49.2,29.85,ENE,63,0.0,1.0,23,0.00,,SKC,0.00,VWS V14.01,2013-07-04 00:32:00,
2013-07-03 19:37:00,92.0,48.9,29.85,ENE,63,0.0,0.0,23,0.00,,SKC,0.00,VWS V14.01,2013-07-04 00:37:00,
2013-07-03 19:40:00,92.0,50.1,29.85,ENE,63,0.0,1.0,24,0.00,,SKC,0.00,VWS V14.01,2013-07-04 00:40:00,
2013-07-03 19:42:00,91.6,49.7,29.85,ENE,63,0.0,1.0,24,0.00,,SKC,0.00,VWS V14.01,2013-07-04 00:42:00,
2013-07-03 19:47:00,91.2,49.4,29.85,ENE,63,0.0,0.0,24,0.00,,SKC,0.00,VWS V14.01,2013-07-04 00:47:00,
2013-07-03 19:50:00,91.3,49.5,29.85,ENE,63,0.0,1.0,24,0.00,,SKC,0.00,VWS V14.01,2013-07-04 00:50:00,
2013-07-03 19:52:00,90.9,49.2,29.85,ENE,63,0.0,0.0,24,0.00,,SKC,0.00,VWS V14.01,2013-07-04 00:52:00,
2013-07-03 19:57:00,90.6,50.0,29.85,ENE,63,0.0,0.0,25,0.00,,SKC,0.00,VWS V14.01,2013-07-04 00:57:00,
2013-07-03 20:00:00,90.6,50.0,29.85,ENE,63,0.0,0.0,25,0.00,,SKC,0.00,VWS V14.01,2013-07-04 01:00:00,
2013-07-03 20:02:00,90.2,49.7,29.85,ENE,63,0.0,0.0,25,0.00,,SKC,0.00,VWS V14.01,2013-07-04 01:02:00,
2013-07-03 20:07:00,89.8,50.4,29.85,ENE,63,0.0,1.0,26,0.00,,SKC,0.00,VWS V14.01,2013-07-04 01:07:00,
2013-07-03 20:10:00,90.0,50.5,29.85,ENE,63,0.0,0.0,26,0.00,,SKC,0.00,VWS V14.01,2013-07-04 01:10:00,
2013-07-03 20:12:00,89.4,50.0,29.85,ENE,63,0.0,1.0,26,0.00,,SKC,0.00,VWS V14.01,2013-07-04 01:12:00,
2013-07-03 20:17:00,89.1,49.8,29.85,ENE,63,0.0,0.0,26,0.00,,SKC,0.00,VWS V14.01,2013-07-04 01:17:00,
2013-07-03 20:20:00,89.2,49.9,29.85,ENE,63,0.0,1.0,26,0.00,,SKC,0.00,VWS V14.01,2013-07-04 01:20:00,
2013-07-03 20:22:00,88.7,49.5,29.85,ENE,63,0.0,0.0,26,0.00,,SKC,0.00,VWS V14.01,2013-07-04 01:22:00,
2013-07-03 20:28:00,88.3,50.1,29.85,ENE,63,0.0,0.0,27,0.00,,SKC,0.00,VWS V14.01,2013-07-04 01:28:00,
2013-07-03 20:30:00,88.4,50.2,29.85,ENE,63,0.0,1.0,27,0.00,,SKC,0.00,VWS V14.01,2013-07-04 01:30:00,
2013-07-03 20:33:00,88.0,49.9,29.85,ENE,63,0.0,0.0,27,0.00,,SKC,0.00,VWS V14.01,2013-07-04 01:33:00,
2013-07-03 20:38:00,87.7,49.6,29.85,ENE,63,0.0,0.0,27,0.00,,SKC,0.00,VWS V14.01,2013-07-04 01:38:00,
2013-07-03 20:40:00,87.8,49.7,29.85,ENE,63,0.0,0.0,27,0.00,,SKC,0.00,VWS V14.01,2013-07-04 01:40:00,
2013-07-03 20:43:00,87.3,49.3,29.85,ENE,63,0.0,0.0,27,0.00,,SKC,0.00,VWS V14.01,2013-07-04 01:43:00,
2013-07-03 20:48:00,86.8,49.8,29.85,ENE,63,0.0,0.0,28,0.00,,SKC,0.00,VWS V14.01,2013-07-04 01:48:00,
2013-07-03 20:50:00,87.0,49.0,29.85,ENE,63,0.0,0.0,27,0.00,,SKC,0.00,VWS V14.01,2013-07-04 01:50:00,
2013-07-03 20:53:00,86.4,49.5,29.85,ENE,63,0.0,1.0,28,0.00,,SKC,0.00,VWS V14.01,2013-07-04 01:53:00,
2013-07-03 20:58:00,86.0,49.1,29.85,ENE,63,0.0,0.0,28,0.00,,SKC,0.00,VWS V14.01,2013-07-04 01:58:00,
2013-07-03 21:00:00,86.1,49.2,29.85,ENE,63,0.0,1.0,28,0.00,,SKC,0.00,VWS V14.01,2013-07-04 02:00:00,
2013-07-03 21:03:00,85.6,48.8,29.85,ENE,63,0.0,0.0,28,0.00,,SKC,0.00,VWS V14.01,2013-07-04 02:03:00,
2013-07-03 21:08:00,85.2,48.5,29.86,ENE,63,0.0,0.0,28,0.00,,SKC,0.00,VWS V14.01,2013-07-04 02:08:00,
2013-07-03 21:10:00,85.4,48.6,29.86,ENE,63,0.0,0.0,28,0.00,,SKC,0.00,VWS V14.01,2013-07-04 02:10:00,
2013-07-03 21:13:00,84.8,48.1,29.86,ENE,63,0.0,0.0,28,0.00,,SKC,0.00,VWS V14.01,2013-07-04 02:13:00,
2013-07-03 21:18:00,84.5,48.8,29.86,ENE,63,0.0,1.0,29,0.00,,SKC,0.00,VWS V14.01,2013-07-04 02:18:00,
2013-07-03 21:20:00,84.6,47.9,29.86,ENE,63,0.0,3.0,28,0.00,,SKC,0.00,VWS V14.01,2013-07-04 02:20:00,
2013-07-03 21:23:00,84.3,47.7,29.86,ENE,63,1.0,2.0,28,0.00,,SKC,0.00,VWS V14.01,2013-07-04 02:23:00,
2013-07-03 21:28:00,84.4,47.8,29.86,ENE,63,0.0,5.0,28,0.00,,SKC,0.00,VWS V14.01,2013-07-04 02:28:00,
2013-07-03 21:30:00,84.4,47.8,29.86,ENE,63,0.0,3.0,28,0.00,,SKC,0.00,VWS V14.01,2013-07-04 02:30:00,
2013-07-03 21:33:00,84.4,48.7,29.86,ENE,63,0.0,5.0,29,0.00,,SKC,0.00,VWS V14.01,2013-07-04 02:33:00,
2013-07-03 21:38:00,84.2,50.3,29.87,ENE,63,1.0,4.0,31,0.00,,SKC,0.00,VWS V14.01,2013-07-04 02:38:00,
2013-07-03 21:40:00,84.3,48.6,29.87,ENE,63,3.0,5.0,29,0.00,,SKC,0.00,VWS V14.01,2013-07-04 02:40:00,
2013-07-03 21:43:00,83.6,54.6,29.87,ENE,66,3.0,5.0,37,0.00,,SKC,0.00,VWS V14.01,2013-07-04 02:43:00,
2013-07-03 21:48:00,83.3,59.1,29.87,ENE,69,0.0,3.0,44,0.00,,SKC,0.00,VWS V14.01,2013-07-04 02:48:00,
2013-07-03 21:50:00,83.4,59.2,29.87,ENE,69,0.0,10.0,44,0.00,,SKC,0.00,VWS V14.01,2013-07-04 02:50:00,
2013-07-03 21:53:00,83.0,57.6,29.88,ENE,69,0.0,3.0,42,0.00,,SKC,0.00,VWS V14.01,2013-07-04 02:53:00,
2013-07-03 21:58:00,82.6,57.2,29.88,ENE,69,0.0,0.0,42,0.00,,SKC,0.00,VWS V14.01,2013-07-04 02:58:00,
2013-07-03 22:00:00,82.9,57.5,29.88,ENE,69,0.0,3.0,42,0.00,,SKC,0.00,VWS V14.01,2013-07-04 03:00:00,
2013-07-03 22:04:00,82.1,57.4,29.88,ENE,69,0.0,0.0,43,0.00,,SKC,0.00,VWS V14.01,2013-07-04 03:04:00,
2013-07-03 22:09:00,81.6,57.6,29.88,ENE,69,0.0,0.0,44,0.00,,SKC,0.00,VWS V14.01,2013-07-04 03:09:00,
2013-07-03 22:10:00,81.9,57.2,29.88,ENE,69,0.0,0.0,43,0.00,,SKC,0.00,VWS V14.01,2013-07-04 03:10:00,
2013-07-03 22:14:00,81.1,59.0,29.88,ENE,69,0.0,4.0,47,0.00,,SKC,0.00,VWS V14.01,2013-07-04 03:14:00,
2013-07-03 22:19:00,80.6,60.3,29.88,ENE,69,0.0,0.0,50,0.00,,SKC,0.00,VWS V14.01,2013-07-04 03:19:00,
2013-07-03 22:20:00,80.9,58.8,29.88,ENE,69,0.0,4.0,47,0.00,,SKC,0.00,VWS V14.01,2013-07-04 03:20:00,
2013-07-03 22:24:00,80.3,61.1,29.88,ENE,69,0.0,0.0,52,0.00,,SKC,0.00,VWS V14.01,2013-07-04 03:24:00,
2013-07-03 22:29:00,79.9,62.3,29.88,ENE,69,0.0,0.0,55,0.00,,SKC,0.00,VWS V14.01,2013-07-04 03:29:00,
2013-07-03 22:30:00,80.2,61.5,29.88,ENE,69,0.0,0.0,53,0.00,,SKC,0.00,VWS V14.01,2013-07-04 03:30:00,
2013-07-03 22:34:00,79.6,63.0,29.88,ENE,69,0.0,0.0,57,0.00,,SKC,0.00,VWS V14.01,2013-07-04 03:34:00,
2013-07-03 22:39:00,79.3,63.7,29.89,ENE,69,0.0,0.0,59,0.00,,SKC,0.00,VWS V14.01,2013-07-04 03:39:00,
2013-07-03 22:40:00,79.6,63.5,29.89,ENE,69,0.0,0.0,58,0.00,,SKC,0.00,VWS V14.01,2013-07-04 03:40:00,
2013-07-03 22:45:00,79.1,64.0,29.89,ENE,69,0.0,2.0,60,0.00,,SKC,0.00,VWS V14.01,2013-07-04 03:45:00,
2013-07-03 22:50:00,79.0,64.4,29.90,ENE,69,0.0,4.0,61,0.00,,SKC,0.00,VWS V14.01,2013-07-04 03:50:00,
2013-07-03 22:55:00,78.9,64.3,29.90,ENE,69,0.0,4.0,61,0.00,,SKC,0.00,VWS V14.01,2013-07-04 03:55:00,
2013-07-03 23:00:00,78.7,64.1,29.90,ENE,69,0.0,0.0,61,0.00,,SKC,0.00,VWS V14.01,2013-07-04 04:00:00,
2013-07-03 23:01:00,78.7,64.1,29.90,ENE,69,0.0,0.0,61,0.00,,SKC,0.00,VWS V14.01,2013-07-04 04:01:00,
2013-07-03 23:06:00,78.5,64.4,29.90,ENE,69,0.0,0.0,62,0.00,,SKC,0.00,VWS V14.01,2013-07-04 04:06:00,
2013-07-03 23:10:00,78.5,64.4,29.89,ENE,69,0.0,3.0,62,0.00,,SKC,0.00,VWS V14.01,2013-07-04 04:10:00,
2013-07-03 23:11:00,78.4,64.3,29.90,ENE,69,0.0,0.0,62,0.00,,SKC,0.00,VWS V14.01,2013-07-04 04:11:00,
2013-07-03 23:16:00,78.2,64.1,29.89,ENE,69,0.0,0.0,62,0.00,,SKC,0.00,VWS V14.01,2013-07-04 04:16:00,
2013-07-03 23:20:00,78.2,64.1,29.89,ENE,69,0.0,2.0,62,0.00,,SKC,0.00,VWS V14.01,2013-07-04 04:20:00,
2013-07-03 23:21:00,78.1,64.0,29.89,ENE,69,0.0,1.0,62,0.00,,SKC,0.00,VWS V14.01,2013-07-04 04:21:00,
2013-07-03 23:26:00,77.9,63.8,29.89,ENE,69,0.0,0.0,62,0.00,,SKC,0.00,VWS V14.01,2013-07-04 04:26:00,
2013-07-03 23:30:00,77.9,63.8,29.89,ENE,69,0.0,1.0,62,0.00,,SKC,0.00,VWS V14.01,2013-07-04 04:30:00,
2013-07-03 23:31:00,77.7,63.7,29.90,ENE,69,0.0,0.0,62,0.00,,SKC,0.00,VWS V14.01,2013-07-04 04:31:00,
2013-07-03 23:36:00,77.5,63.5,29.90,ENE,69,0.0,0.0,62,0.00,,SKC,0.00,VWS V14.01,2013-07-04 04:36:00,
2013-07-03 23:40:00,77.5,63.5,29.90,ENE,69,0.0,0.0,62,0.00,,SKC,0.00,VWS V14.01,2013-07-04 04:40:00,
2013-07-03 23:41:00,77.3,63.3,29.90,ENE,69,0.0,1.0,62,0.00,,SKC,0.00,VWS V14.01,2013-07-04 04:41:00,
2013-07-03 23:46:00,77.1,63.5,29.90,ENE,69,0.0,0.0,63,0.00,,SKC,0.00,VWS V14.01,2013-07-04 04:46:00,
2013-07-03 23:50:00,77.1,63.5,29.90,ENE,69,0.0,2.0,63,0.00,,SKC,0.00,VWS V14.01,2013-07-04 04:50:00,
2013-07-03 23:51:00,76.9,63.4,29.90,ENE,69,0.0,0.0,63,0.00,,SKC,0.00,VWS V14.01,2013-07-04 04:51:00,
2013-07-03 23:56:00,76.7,63.2,29.90,ENE,69,0.0,0.0,63,0.00,,SKC,0.00,VWS V14.01,2013-07-04 04:56:00,